Regional Weather Roundup
Issued by NWS Goodland, KS

Home | Current Version | Previous Version | Graphics & Text | Print | Product List | Glossary On
Versions: 1 2 3 4 5 6 7 8 9 10 11 12 13 14 15 16 17 18 19 20 21 22 23 24 25 26 27 28 29 30 31 32 33 34 35 36 37 38 39 40 41 42 43 44 45 46 47 48 49 50
000
ASUS43 KGLD 221159
RWRGLD

GOODLAND FORECAST AREA HOURLY WEATHER ROUNDUP
NATIONAL WEATHER SERVICE GOODLAND KS
500 AM MST SUN JAN 22 2017

...OFFICIAL OBSERVATIONS...

CITY           SKY/WX    TMP DP  RH WIND       PRES   REMARKS
GOODLAND KS    CLOUDY    25  23  92 W6        29.75R
HILL CITY KS   CLEAR     32  30  92 N9        29.72R
IMPERIAL NEB   CLOUDY    30  25  81 NW10      29.76R
MCCOOK NEB     CLEAR     25  24  96 W9        29.75R
AKRON CO       CLEAR     27  20  75 NW10      29.78R WCI  17
BURLINGTON CO  CLEAR     31  27  85 NW13      29.77R
LIMON CO       CLOUDY    25  23  92 W10       29.79R WCI  15
$$

...UNOFFICIAL OBSERVATIONS...

CITY           SKY/WX    TMP DP  RH WIND       PRES   REMARKS
LENORA KS        N/A     31  32 100 NW7         N/A
NORTON KS      CLEAR     28  25  86 NW7       29.72S
SHARON SPRINGS   N/A     32  29  87 NW9         N/A
TRENTON NEB      N/A     29  32 100 NW7         N/A
KIT CARSON CO    N/A     29  26  86 CALM        N/A
YUMA CO        FAIR      30  23  74 NW12      29.77R
$$




USA.gov is the U.S. government's official web portal to all federal, state and local government web resources and services.